Year,Month,Day,Hour,Minute,Value (Times are PST for temperature in C)
2014,04,11,00,00,8.60
2014,04,11,00,01,8.60
2014,04,11,00,02,8.60
2014,04,11,00,03,8.60
2014,04,11,00,04,8.60
2014,04,11,00,05,8.60
2014,04,11,00,06,8.60
2014,04,11,00,07,8.60
2014,04,11,00,08,8.60
2014,04,11,00,09,8.60
2014,04,11,00,10,8.60
2014,04,11,00,11,8.60
2014,04,11,00,12,8.60
2014,04,11,00,13,8.60
2014,04,11,00,14,8.60
2014,04,11,00,15,8.60
2014,04,11,00,16,8.60
2014,04,11,00,17,8.60
2014,04,11,00,18,8.60
2014,04,11,00,19,8.60
2014,04,11,00,20,8.60
2014,04,11,00,21,8.60
2014,04,11,00,22,8.60
2014,04,11,00,23,8.50
2014,04,11,00,24,8.50
2014,04,11,00,25,8.50
2014,04,11,00,26,8.50
2014,04,11,00,27,8.50
2014,04,11,00,28,8.50
2014,04,11,00,29,8.50
2014,04,11,00,30,8.50
2014,04,11,00,31,8.50
2014,04,11,00,32,8.50
2014,04,11,00,33,8.50
2014,04,11,00,34,8.50
2014,04,11,00,35,8.50
2014,04,11,00,36,8.40
2014,04,11,00,37,8.40
2014,04,11,00,38,8.40
2014,04,11,00,39,8.40
2014,04,11,00,40,8.40
2014,04,11,00,41,8.40
2014,04,11,00,42,8.40
2014,04,11,00,43,8.40
2014,04,11,00,44,8.30
2014,04,11,00,45,8.30
2014,04,11,00,46,8.30
2014,04,11,00,47,8.30
2014,04,11,00,48,8.30
2014,04,11,00,49,8.30
2014,04,11,00,50,8.30
2014,04,11,00,51,8.20
2014,04,11,00,52,8.20
2014,04,11,00,53,8.20
2014,04,11,00,54,8.20
2014,04,11,00,55,8.20
2014,04,11,00,56,8.20
2014,04,11,00,57,8.20
2014,04,11,00,58,8.20
2014,04,11,00,59,8.20
2014,04,11,01,00,8.20
2014,04,11,01,01,8.20
2014,04,11,01,02,8.10
2014,04,11,01,03,8.10
2014,04,11,01,04,8.10
2014,04,11,01,05,8.10
2014,04,11,01,06,8.10
2014,04,11,01,07,8.10
2014,04,11,01,08,8.10
2014,04,11,01,09,8.10
2014,04,11,01,10,8.10
2014,04,11,01,11,8.10
2014,04,11,01,12,8.10
2014,04,11,01,13,8.10
2014,04,11,01,14,8.10
2014,04,11,01,15,8.10
2014,04,11,01,16,8.10
2014,04,11,01,17,8.10
2014,04,11,01,18,8.10
2014,04,11,01,19,8.10
2014,04,11,01,20,8.10
2014,04,11,01,21,8.10
2014,04,11,01,22,8.00
2014,04,11,01,23,8.00
2014,04,11,01,24,8.00
2014,04,11,01,25,8.00
2014,04,11,01,26,8.00
2014,04,11,01,27,8.00
2014,04,11,01,28,7.90
2014,04,11,01,29,7.90
2014,04,11,01,30,7.90
2014,04,11,01,31,7.90
2014,04,11,01,32,7.90
2014,04,11,01,33,7.90
2014,04,11,01,34,7.80
2014,04,11,01,35,7.80
2014,04,11,01,36,7.80
2014,04,11,01,37,7.80
2014,04,11,01,38,7.80
2014,04,11,01,39,7.80
2014,04,11,01,40,7.80
2014,04,11,01,41,7.80
2014,04,11,01,42,7.80
2014,04,11,01,43,7.80
2014,04,11,01,44,7.80
2014,04,11,01,45,7.70
2014,04,11,01,46,7.70
2014,04,11,01,47,7.70
2014,04,11,01,48,7.70
2014,04,11,01,49,7.60
2014,04,11,01,50,7.60
2014,04,11,01,51,7.60
2014,04,11,01,52,7.60
2014,04,11,01,53,7.50
2014,04,11,01,54,7.50
2014,04,11,01,55,7.50
2014,04,11,01,56,7.40
2014,04,11,01,57,7.40
2014,04,11,01,58,7.40
2014,04,11,01,59,7.40
2014,04,11,02,00,7.40
2014,04,11,02,01,7.40
2014,04,11,02,02,7.40
2014,04,11,02,03,7.40
2014,04,11,02,04,7.30
2014,04,11,02,05,7.30
2014,04,11,02,06,7.30
2014,04,11,02,07,7.30
2014,04,11,02,08,7.30
2014,04,11,02,09,7.30
2014,04,11,02,10,7.30
2014,04,11,02,11,7.30
2014,04,11,02,12,7.20
2014,04,11,02,13,7.20
2014,04,11,02,14,7.20
2014,04,11,02,15,7.10
2014,04,11,02,16,7.10
2014,04,11,02,17,7.10
2014,04,11,02,18,7.00
2014,04,11,02,19,7.00
2014,04,11,02,20,7.00
2014,04,11,02,21,7.00
2014,04,11,02,22,7.00
2014,04,11,02,23,6.90
2014,04,11,02,24,6.90
2014,04,11,02,25,6.90
2014,04,11,02,26,6.80
2014,04,11,02,27,6.80
2014,04,11,02,28,6.80
2014,04,11,02,29,6.80
2014,04,11,02,30,6.80
2014,04,11,02,31,6.70
2014,04,11,02,32,6.70
2014,04,11,02,33,6.70
2014,04,11,02,34,6.60
2014,04,11,02,35,6.60
2014,04,11,02,36,6.60
2014,04,11,02,37,6.60
2014,04,11,02,38,6.60
2014,04,11,02,39,6.60
2014,04,11,02,40,6.50
2014,04,11,02,41,6.40
2014,04,11,02,42,6.40
2014,04,11,02,43,6.40
2014,04,11,02,44,6.40
2014,04,11,02,45,6.40
2014,04,11,02,46,6.40
2014,04,11,02,47,6.40
2014,04,11,02,48,6.30
2014,04,11,02,49,6.30
2014,04,11,02,50,6.30
2014,04,11,02,51,6.30
2014,04,11,02,52,6.30
2014,04,11,02,53,6.30
2014,04,11,02,54,6.30
2014,04,11,02,55,6.30
2014,04,11,02,56,6.30
2014,04,11,02,57,6.20
2014,04,11,02,58,6.20
2014,04,11,02,59,6.20
2014,04,11,03,00,6.10
2014,04,11,03,01,6.10
2014,04,11,03,02,6.10
2014,04,11,03,03,6.10
2014,04,11,03,04,6.10
2014,04,11,03,05,6.10
2014,04,11,03,06,6.10
2014,04,11,03,07,6.20
2014,04,11,03,08,6.20
2014,04,11,03,09,6.10
2014,04,11,03,10,6.10
2014,04,11,03,11,6.10
2014,04,11,03,12,6.10
2014,04,11,03,13,6.00
2014,04,11,03,14,6.00
2014,04,11,03,15,6.00
2014,04,11,03,16,6.10
2014,04,11,03,17,6.10
2014,04,11,03,18,6.10
2014,04,11,03,19,6.10
2014,04,11,03,20,6.10
2014,04,11,03,21,6.00
2014,04,11,03,22,6.00
2014,04,11,03,23,5.90
2014,04,11,03,24,5.90
2014,04,11,03,25,5.90
2014,04,11,03,26,5.90
2014,04,11,03,27,5.90
2014,04,11,03,28,5.90
2014,04,11,03,29,5.90
2014,04,11,03,30,5.90
2014,04,11,03,31,5.80
2014,04,11,03,32,5.70
2014,04,11,03,33,5.70
2014,04,11,03,34,5.60
2014,04,11,03,35,5.50
2014,04,11,03,36,5.50
2014,04,11,03,37,5.50
2014,04,11,03,38,5.50
2014,04,11,03,39,5.50
2014,04,11,03,40,5.50
2014,04,11,03,41,5.60
2014,04,11,03,42,5.60
2014,04,11,03,43,5.60
2014,04,11,03,44,5.60
2014,04,11,03,45,5.60
2014,04,11,03,46,5.70
2014,04,11,03,47,5.70
2014,04,11,03,48,5.70
2014,04,11,03,49,5.70
2014,04,11,03,50,5.70
2014,04,11,03,51,5.70
2014,04,11,03,52,5.60
2014,04,11,03,53,5.50
2014,04,11,03,54,5.50
2014,04,11,03,55,5.40
2014,04,11,03,56,5.40
2014,04,11,03,57,5.30
2014,04,11,03,58,5.30
2014,04,11,03,59,5.30
2014,04,11,04,00,5.30
2014,04,11,04,01,5.20
2014,04,11,04,02,5.10
2014,04,11,04,03,5.10
2014,04,11,04,04,5.10
2014,04,11,04,05,5.10
2014,04,11,04,06,5.10
2014,04,11,04,07,5.10
2014,04,11,04,08,5.20
2014,04,11,04,09,5.20
2014,04,11,04,10,5.20
2014,04,11,04,11,5.20
2014,04,11,04,12,5.20
2014,04,11,04,13,5.20
2014,04,11,04,14,5.20
2014,04,11,04,15,5.20
2014,04,11,04,16,5.20
2014,04,11,04,17,5.20
2014,04,11,04,18,5.30
2014,04,11,04,19,5.30
2014,04,11,04,20,5.30
2014,04,11,04,21,5.30
2014,04,11,04,22,5.30
2014,04,11,04,23,5.30
2014,04,11,04,24,5.30
2014,04,11,04,25,5.30
2014,04,11,04,26,5.30
2014,04,11,04,27,5.30
2014,04,11,04,28,5.30
2014,04,11,04,29,5.30
2014,04,11,04,30,5.30
2014,04,11,04,31,5.20
2014,04,11,04,32,5.20
2014,04,11,04,33,5.10
2014,04,11,04,34,5.10
2014,04,11,04,35,5.10
2014,04,11,04,36,5.10
2014,04,11,04,37,5.00
2014,04,11,04,38,5.10
2014,04,11,04,39,5.10
2014,04,11,04,40,5.10
2014,04,11,04,41,5.10
2014,04,11,04,42,5.10
2014,04,11,04,43,5.10
2014,04,11,04,44,5.20
2014,04,11,04,45,5.20
2014,04,11,04,46,5.30
2014,04,11,04,47,5.30
2014,04,11,04,48,5.30
2014,04,11,04,49,5.30
2014,04,11,04,50,5.30
2014,04,11,04,51,5.40
2014,04,11,04,52,5.40
2014,04,11,04,53,5.40
2014,04,11,04,54,5.40
2014,04,11,04,55,5.50
2014,04,11,04,56,5.50
2014,04,11,04,57,5.50
2014,04,11,04,58,5.50
2014,04,11,04,59,5.50
2014,04,11,05,00,5.50
2014,04,11,05,01,5.50
2014,04,11,05,02,5.50
2014,04,11,05,03,5.50
2014,04,11,05,04,5.50
2014,04,11,05,05,5.40
2014,04,11,05,06,5.40
2014,04,11,05,07,5.40
2014,04,11,05,08,5.40
2014,04,11,05,09,5.40
2014,04,11,05,10,5.40
2014,04,11,05,11,5.40
2014,04,11,05,12,5.40
2014,04,11,05,13,5.40
2014,04,11,05,14,5.40
2014,04,11,05,15,5.40
2014,04,11,05,16,5.40
2014,04,11,05,17,5.40
2014,04,11,05,18,5.40
2014,04,11,05,19,5.40
2014,04,11,05,20,5.30
2014,04,11,05,21,5.30
2014,04,11,05,22,5.30
2014,04,11,05,23,5.30
2014,04,11,05,24,5.30
2014,04,11,05,25,5.30
2014,04,11,05,26,5.30
2014,04,11,05,27,5.30
2014,04,11,05,28,5.30
2014,04,11,05,29,5.40
2014,04,11,05,30,5.40
2014,04,11,05,31,5.40
2014,04,11,05,32,5.40
2014,04,11,05,33,5.40
2014,04,11,05,34,5.50
2014,04,11,05,35,5.50
2014,04,11,05,36,5.50
2014,04,11,05,37,5.50
2014,04,11,05,38,5.60
2014,04,11,05,39,5.60
2014,04,11,05,40,5.60
2014,04,11,05,41,5.50
2014,04,11,05,42,5.50
2014,04,11,05,43,5.50
2014,04,11,05,44,5.40
2014,04,11,05,45,5.40
2014,04,11,05,46,5.30
2014,04,11,05,47,5.30
2014,04,11,05,48,5.30
2014,04,11,05,49,5.30
2014,04,11,05,50,5.30
2014,04,11,05,51,5.30
2014,04,11,05,52,5.30
2014,04,11,05,53,5.30
2014,04,11,05,54,5.30
2014,04,11,05,55,5.30
2014,04,11,05,56,5.30
2014,04,11,05,57,5.30
2014,04,11,05,58,5.30
2014,04,11,05,59,5.30
2014,04,11,06,00,5.30
2014,04,11,06,01,5.30
2014,04,11,06,02,5.30
2014,04,11,06,03,5.40
2014,04,11,06,04,5.50
2014,04,11,06,05,5.60
2014,04,11,06,06,5.70
2014,04,11,06,07,5.80
2014,04,11,06,08,5.90
2014,04,11,06,09,6.00
2014,04,11,06,10,6.00
2014,04,11,06,11,6.10
2014,04,11,06,12,6.20
2014,04,11,06,13,6.20
2014,04,11,06,14,6.30
2014,04,11,06,15,6.40
2014,04,11,06,16,6.40
2014,04,11,06,17,6.60
2014,04,11,06,18,6.70
2014,04,11,06,19,6.70
2014,04,11,06,20,6.80
2014,04,11,06,21,6.80
2014,04,11,06,22,6.80
2014,04,11,06,23,6.90
2014,04,11,06,24,6.90
2014,04,11,06,25,7.00
2014,04,11,06,26,7.00
2014,04,11,06,27,7.00
2014,04,11,06,28,7.00
2014,04,11,06,29,6.90
2014,04,11,06,30,6.80
2014,04,11,06,31,6.70
2014,04,11,06,32,6.60
2014,04,11,06,33,6.50
2014,04,11,06,34,6.40
2014,04,11,06,35,6.30
2014,04,11,06,36,6.30
2014,04,11,06,37,6.20
2014,04,11,06,38,6.20
2014,04,11,06,39,6.20
2014,04,11,06,40,6.20
2014,04,11,06,41,6.20
2014,04,11,06,42,6.20
2014,04,11,06,43,6.20
2014,04,11,06,44,6.10
2014,04,11,06,45,6.10
2014,04,11,06,46,6.10
2014,04,11,06,47,6.10
2014,04,11,06,48,6.20
2014,04,11,06,49,6.30
2014,04,11,06,50,6.30
2014,04,11,06,51,6.30
2014,04,11,06,52,6.30
2014,04,11,06,53,6.30
2014,04,11,06,54,6.30
2014,04,11,06,55,6.50
2014,04,11,06,56,6.60
2014,04,11,06,57,6.70
2014,04,11,06,58,6.80
2014,04,11,06,59,6.90
2014,04,11,07,00,7.10
2014,04,11,07,01,7.20
2014,04,11,07,02,7.30
2014,04,11,07,03,7.30
2014,04,11,07,04,7.40
2014,04,11,07,05,7.50
2014,04,11,07,06,7.50
2014,04,11,07,07,7.50
2014,04,11,07,08,7.60
2014,04,11,07,09,7.70
2014,04,11,07,10,7.70
2014,04,11,07,11,7.70
2014,04,11,07,12,7.60
2014,04,11,07,13,7.60
2014,04,11,07,14,7.50
2014,04,11,07,15,7.50
2014,04,11,07,16,7.50
2014,04,11,07,17,7.50
2014,04,11,07,18,7.50
2014,04,11,07,19,7.60
2014,04,11,07,20,7.60
2014,04,11,07,21,7.70
2014,04,11,07,22,7.70
2014,04,11,07,23,7.70
2014,04,11,07,24,7.70
2014,04,11,07,25,7.70
2014,04,11,07,26,7.80
2014,04,11,07,27,7.80
2014,04,11,07,28,7.70
2014,04,11,07,29,7.70
2014,04,11,07,30,7.60
2014,04,11,07,31,7.60
2014,04,11,07,32,7.50
2014,04,11,07,33,7.50
2014,04,11,07,34,7.50
2014,04,11,07,35,7.50
2014,04,11,07,36,7.60
2014,04,11,07,37,7.60
2014,04,11,07,38,7.70
2014,04,11,07,39,7.80
2014,04,11,07,40,7.80
2014,04,11,07,41,7.90
2014,04,11,07,42,7.90
2014,04,11,07,43,8.00
2014,04,11,07,44,8.10
2014,04,11,07,45,8.20
2014,04,11,07,46,8.20
2014,04,11,07,47,8.30
2014,04,11,07,48,8.40
2014,04,11,07,49,8.40
2014,04,11,07,50,8.50
2014,04,11,07,51,8.50
2014,04,11,07,52,8.60
2014,04,11,07,53,8.70
2014,04,11,07,54,8.70
2014,04,11,07,55,8.70
2014,04,11,07,56,8.70
2014,04,11,07,57,8.80
2014,04,11,07,58,8.80
2014,04,11,07,59,8.80
2014,04,11,08,00,8.90
2014,04,11,08,01,8.90
2014,04,11,08,02,8.90
2014,04,11,08,03,9.00
2014,04,11,08,04,9.10
2014,04,11,08,05,9.20
2014,04,11,08,06,9.30
2014,04,11,08,07,9.40
2014,04,11,08,08,9.50
2014,04,11,08,09,9.60
2014,04,11,08,10,9.60
2014,04,11,08,11,9.70
2014,04,11,08,12,9.70
2014,04,11,08,13,9.70
2014,04,11,08,14,9.60
2014,04,11,08,15,9.60
2014,04,11,08,16,9.60
2014,04,11,08,17,9.60
2014,04,11,08,18,9.70
2014,04,11,08,19,9.70
2014,04,11,08,20,9.70
2014,04,11,08,21,9.70
2014,04,11,08,22,9.80
2014,04,11,08,23,9.80
2014,04,11,08,24,9.80
2014,04,11,08,25,9.80
2014,04,11,08,26,9.80
2014,04,11,08,27,9.90
2014,04,11,08,28,9.90
2014,04,11,08,29,9.90
2014,04,11,08,30,9.90
2014,04,11,08,31,10.00
2014,04,11,08,32,10.10
2014,04,11,08,33,10.10
2014,04,11,08,34,10.10
2014,04,11,08,35,10.20
2014,04,11,08,36,10.20
2014,04,11,08,37,10.20
2014,04,11,08,38,10.30
2014,04,11,08,39,10.30
2014,04,11,08,40,10.30
2014,04,11,08,41,10.40
2014,04,11,08,42,10.50
2014,04,11,08,43,10.60
2014,04,11,08,44,10.60
2014,04,11,08,45,10.60
2014,04,11,08,46,10.60
2014,04,11,08,47,10.60
2014,04,11,08,48,10.70
2014,04,11,08,49,10.70
2014,04,11,08,50,10.60
2014,04,11,08,51,10.60
2014,04,11,08,52,10.60
2014,04,11,08,53,10.60
2014,04,11,08,54,10.60
2014,04,11,08,55,10.60
2014,04,11,08,56,10.60
2014,04,11,08,57,10.60
2014,04,11,08,58,10.60
2014,04,11,08,59,10.50
2014,04,11,09,00,10.60
2014,04,11,09,01,10.60
2014,04,11,09,02,10.60
2014,04,11,09,03,10.70
2014,04,11,09,04,10.70
2014,04,11,09,05,10.90
2014,04,11,09,06,10.90
2014,04,11,09,07,10.90
2014,04,11,09,08,11.00
2014,04,11,09,09,11.10
2014,04,11,09,10,11.10
2014,04,11,09,11,11.20
2014,04,11,09,12,11.20
2014,04,11,09,13,11.30
2014,04,11,09,14,11.40
2014,04,11,09,15,11.40
2014,04,11,09,16,11.40
2014,04,11,09,17,11.40
2014,04,11,09,18,11.40
2014,04,11,09,19,11.30
2014,04,11,09,20,11.30
2014,04,11,09,21,11.30
2014,04,11,09,22,11.40
2014,04,11,09,23,11.40
2014,04,11,09,24,11.40
2014,04,11,09,25,11.40
2014,04,11,09,26,11.40
2014,04,11,09,27,11.40
2014,04,11,09,28,11.50
2014,04,11,09,29,11.60
2014,04,11,09,30,11.60
2014,04,11,09,31,11.60
2014,04,11,09,32,11.70
2014,04,11,09,33,11.70
2014,04,11,09,34,11.70
2014,04,11,09,35,11.70
2014,04,11,09,36,11.70
2014,04,11,09,37,11.70
2014,04,11,09,38,11.70
2014,04,11,09,39,11.70
2014,04,11,09,40,11.80
2014,04,11,09,41,11.80
2014,04,11,09,42,11.80
2014,04,11,09,43,11.80
2014,04,11,09,44,11.80
2014,04,11,09,45,11.90
2014,04,11,09,46,11.90
2014,04,11,09,47,11.90
2014,04,11,09,48,12.00
2014,04,11,09,49,12.10
2014,04,11,09,50,12.20
2014,04,11,09,51,12.30
2014,04,11,09,52,12.40
2014,04,11,09,53,12.50
2014,04,11,09,54,12.50
2014,04,11,09,55,12.60
2014,04,11,09,56,12.70
2014,04,11,09,57,12.80
2014,04,11,09,58,12.90
2014,04,11,09,59,12.90
2014,04,11,10,00,13.00
2014,04,11,10,01,13.10
2014,04,11,10,02,13.20
2014,04,11,10,03,13.20
2014,04,11,10,04,13.20
2014,04,11,10,05,13.30
2014,04,11,10,06,13.30
2014,04,11,10,07,13.30
2014,04,11,10,08,13.30
2014,04,11,10,09,13.30
2014,04,11,10,10,13.40
2014,04,11,10,11,13.50
2014,04,11,10,12,13.50
2014,04,11,10,13,13.50
2014,04,11,10,14,13.50
2014,04,11,10,15,13.60
2014,04,11,10,16,13.70
2014,04,11,10,17,13.80
2014,04,11,10,18,13.90
2014,04,11,10,19,14.00
2014,04,11,10,20,14.20
2014,04,11,10,21,14.30
2014,04,11,10,22,14.30
2014,04,11,10,23,14.30
2014,04,11,10,24,14.30
2014,04,11,10,25,14.30
2014,04,11,10,26,14.20
2014,04,11,10,27,14.30
2014,04,11,10,28,14.30
2014,04,11,10,29,14.40
2014,04,11,10,30,14.50
2014,04,11,10,31,14.60
2014,04,11,10,32,14.60
2014,04,11,10,33,14.70
2014,04,11,10,34,14.80
2014,04,11,10,35,14.80
2014,04,11,10,36,14.80
2014,04,11,10,37,14.80
2014,04,11,10,38,14.80
2014,04,11,10,39,14.90
2014,04,11,10,40,15.00
2014,04,11,10,41,15.00
2014,04,11,10,42,15.10
2014,04,11,10,43,15.10
2014,04,11,10,44,15.20
2014,04,11,10,45,15.30
2014,04,11,10,46,15.30
2014,04,11,10,47,15.50
2014,04,11,10,48,15.50
2014,04,11,10,49,15.50
2014,04,11,10,50,15.60
2014,04,11,10,51,15.60
2014,04,11,10,52,15.60
2014,04,11,10,53,15.70
2014,04,11,10,54,15.80
2014,04,11,10,55,15.80
2014,04,11,10,56,15.80
2014,04,11,10,57,15.80
2014,04,11,10,58,15.90
2014,04,11,10,59,16.00
2014,04,11,11,00,16.10
2014,04,11,11,01,16.10
2014,04,11,11,02,16.10
2014,04,11,11,03,16.00
2014,04,11,11,04,15.90
2014,04,11,11,05,15.90
2014,04,11,11,06,15.90
2014,04,11,11,07,15.90
2014,04,11,11,08,15.90
2014,04,11,11,09,16.00
2014,04,11,11,10,16.10
2014,04,11,11,11,16.10
2014,04,11,11,12,16.10
2014,04,11,11,13,16.10
2014,04,11,11,14,16.10
2014,04,11,11,15,16.10
2014,04,11,11,16,16.20
2014,04,11,11,17,16.20
2014,04,11,11,18,16.10
2014,04,11,11,19,16.10
2014,04,11,11,20,16.00
2014,04,11,11,21,16.00
2014,04,11,11,22,16.00
2014,04,11,11,23,15.90
2014,04,11,11,24,16.00
2014,04,11,11,25,16.20
2014,04,11,11,26,16.40
2014,04,11,11,27,16.40
2014,04,11,11,28,16.50
2014,04,11,11,29,16.60
2014,04,11,11,30,16.70
2014,04,11,11,31,16.70
2014,04,11,11,32,16.70
2014,04,11,11,33,16.70
2014,04,11,11,34,16.70
2014,04,11,11,35,16.70
2014,04,11,11,36,16.70
2014,04,11,11,37,16.60
2014,04,11,11,38,16.60
2014,04,11,11,39,16.60
2014,04,11,11,40,16.60
2014,04,11,11,41,16.70
2014,04,11,11,42,16.70
2014,04,11,11,43,16.70
2014,04,11,11,44,16.60
2014,04,11,11,45,16.50
2014,04,11,11,46,16.40
2014,04,11,11,47,16.30
2014,04,11,11,48,16.20
2014,04,11,11,49,16.10
2014,04,11,11,50,16.00
2014,04,11,11,51,15.90
2014,04,11,11,52,15.80
2014,04,11,11,53,15.90
2014,04,11,11,54,16.00
2014,04,11,11,55,16.10
2014,04,11,11,56,16.10
2014,04,11,11,57,16.30
2014,04,11,11,58,16.40
2014,04,11,11,59,16.40
2014,04,11,12,00,16.30
2014,04,11,12,01,16.30
2014,04,11,12,02,16.20
2014,04,11,12,03,16.10
2014,04,11,12,04,16.10
2014,04,11,12,05,16.10
2014,04,11,12,06,16.10
2014,04,11,12,07,16.10
2014,04,11,12,08,16.10
2014,04,11,12,09,16.10
2014,04,11,12,10,16.10
2014,04,11,12,11,16.10
2014,04,11,12,12,16.00
2014,04,11,12,13,15.90
2014,04,11,12,14,15.90
2014,04,11,12,15,15.80
2014,04,11,12,16,15.90
2014,04,11,12,17,15.80
2014,04,11,12,18,15.80
2014,04,11,12,19,15.80
2014,04,11,12,20,15.80
2014,04,11,12,21,15.80
2014,04,11,12,22,15.80
2014,04,11,12,23,15.80
2014,04,11,12,24,15.70
2014,04,11,12,25,15.50
2014,04,11,12,26,15.50
2014,04,11,12,27,15.40
2014,04,11,12,28,15.30
2014,04,11,12,29,15.40
2014,04,11,12,30,15.50
2014,04,11,12,31,15.50
2014,04,11,12,32,15.50
2014,04,11,12,33,15.40
2014,04,11,12,34,15.30
2014,04,11,12,35,15.30
2014,04,11,12,36,15.10
2014,04,11,12,37,15.00
2014,04,11,12,38,14.90
2014,04,11,12,39,15.00
2014,04,11,12,40,15.00
2014,04,11,12,41,15.00
2014,04,11,12,42,15.00
2014,04,11,12,43,15.20
2014,04,11,12,44,15.20
2014,04,11,12,45,15.20
2014,04,11,12,46,15.30
2014,04,11,12,47,15.30
2014,04,11,12,48,15.30
2014,04,11,12,49,15.30
2014,04,11,12,50,15.20
2014,04,11,12,51,15.20
2014,04,11,12,52,15.20
2014,04,11,12,53,15.20
2014,04,11,12,54,15.30
2014,04,11,12,55,15.40
2014,04,11,12,56,15.50
2014,04,11,12,57,15.50
2014,04,11,12,58,15.50
2014,04,11,12,59,15.50
2014,04,11,13,00,15.50
2014,04,11,13,01,15.40
2014,04,11,13,02,15.30
2014,04,11,13,03,15.30
2014,04,11,13,04,15.30
2014,04,11,13,05,15.30
2014,04,11,13,06,15.40
2014,04,11,13,07,15.50
2014,04,11,13,08,15.60
2014,04,11,13,09,15.60
2014,04,11,13,10,15.60
2014,04,11,13,11,15.50
2014,04,11,13,12,15.40
2014,04,11,13,13,15.30
2014,04,11,13,14,15.30
2014,04,11,13,15,15.30
2014,04,11,13,16,15.40
2014,04,11,13,17,15.50
2014,04,11,13,18,15.50
2014,04,11,13,19,15.60
2014,04,11,13,20,15.60
2014,04,11,13,21,15.70
2014,04,11,13,22,15.60
2014,04,11,13,23,15.60
2014,04,11,13,24,15.60
2014,04,11,13,25,15.60
2014,04,11,13,26,15.60
2014,04,11,13,27,15.50
2014,04,11,13,28,15.50
2014,04,11,13,29,15.60
2014,04,11,13,30,15.70
2014,04,11,13,31,15.70
2014,04,11,13,32,15.80
2014,04,11,13,33,15.80
2014,04,11,13,34,15.80
2014,04,11,13,35,15.90
2014,04,11,13,36,15.90
2014,04,11,13,37,16.00
2014,04,11,13,38,16.10
2014,04,11,13,39,16.20
2014,04,11,13,40,16.20
2014,04,11,13,41,16.20
2014,04,11,13,42,16.20
2014,04,11,13,43,16.10
2014,04,11,13,44,16.00
2014,04,11,13,45,15.90
2014,04,11,13,46,15.90
2014,04,11,13,47,15.90
2014,04,11,13,48,16.00
2014,04,11,13,49,16.00
2014,04,11,13,50,15.90
2014,04,11,13,51,16.00
2014,04,11,13,52,16.10
2014,04,11,13,53,16.20
2014,04,11,13,54,16.30
2014,04,11,13,55,16.40
2014,04,11,13,56,16.50
2014,04,11,13,57,16.60
2014,04,11,13,58,16.50
2014,04,11,13,59,16.40
2014,04,11,14,00,16.30
2014,04,11,14,01,16.20
2014,04,11,14,02,16.10
2014,04,11,14,03,16.00
2014,04,11,14,04,16.00
2014,04,11,14,05,16.10
2014,04,11,14,06,16.10
2014,04,11,14,07,16.20
2014,04,11,14,08,16.20
2014,04,11,14,09,16.20
2014,04,11,14,10,16.10
2014,04,11,14,11,16.10
2014,04,11,14,12,16.10
2014,04,11,14,13,16.00
2014,04,11,14,14,15.90
2014,04,11,14,15,15.70
2014,04,11,14,16,15.70
2014,04,11,14,17,15.70
2014,04,11,14,18,15.60
2014,04,11,14,19,15.50
2014,04,11,14,20,15.50
2014,04,11,14,21,15.40
2014,04,11,14,22,15.40
2014,04,11,14,23,15.50
2014,04,11,14,24,15.60
2014,04,11,14,25,15.70
2014,04,11,14,26,15.70
2014,04,11,14,27,15.60
2014,04,11,14,28,15.50
2014,04,11,14,29,15.50
2014,04,11,14,30,15.40
2014,04,11,14,31,15.30
2014,04,11,14,32,15.30
2014,04,11,14,33,15.30
2014,04,11,14,34,15.40
2014,04,11,14,35,15.40
2014,04,11,14,36,15.30
2014,04,11,14,37,15.40
2014,04,11,14,38,15.50
2014,04,11,14,39,15.50
2014,04,11,14,40,15.60
2014,04,11,14,41,15.60
2014,04,11,14,42,15.80
2014,04,11,14,43,15.80
2014,04,11,14,44,16.00
2014,04,11,14,45,16.20
2014,04,11,14,46,16.30
2014,04,11,14,47,16.30
2014,04,11,14,48,16.40
2014,04,11,14,49,16.40
2014,04,11,14,50,16.40
2014,04,11,14,51,16.40
2014,04,11,14,52,16.30
2014,04,11,14,53,16.20
2014,04,11,14,54,16.20
2014,04,11,14,55,16.20
2014,04,11,14,56,16.20
2014,04,11,14,57,16.10
2014,04,11,14,58,16.10
2014,04,11,14,59,16.00
2014,04,11,15,00,15.90
2014,04,11,15,01,16.00
2014,04,11,15,02,16.10
2014,04,11,15,03,16.10
2014,04,11,15,04,16.10
2014,04,11,15,05,16.10
2014,04,11,15,06,16.10
2014,04,11,15,07,16.10
2014,04,11,15,08,16.10
2014,04,11,15,09,16.10
2014,04,11,15,10,16.10
2014,04,11,15,11,16.20
2014,04,11,15,12,16.30
2014,04,11,15,13,16.20
2014,04,11,15,14,16.20
2014,04,11,15,15,16.30
2014,04,11,15,16,16.40
2014,04,11,15,17,16.40
2014,04,11,15,18,16.40
2014,04,11,15,19,16.40
2014,04,11,15,20,16.40
2014,04,11,15,21,16.30
2014,04,11,15,22,16.30
2014,04,11,15,23,16.30
2014,04,11,15,24,16.30
2014,04,11,15,25,16.40
2014,04,11,15,26,16.50
2014,04,11,15,27,16.60
2014,04,11,15,28,16.70
2014,04,11,15,29,16.80
2014,04,11,15,30,16.90
2014,04,11,15,31,16.90
2014,04,11,15,32,16.80
2014,04,11,15,33,16.70
2014,04,11,15,34,16.70
2014,04,11,15,35,16.60
2014,04,11,15,36,16.60
2014,04,11,15,37,16.60
2014,04,11,15,38,16.60
2014,04,11,15,39,16.50
2014,04,11,15,40,16.40
2014,04,11,15,41,16.20
2014,04,11,15,42,16.10
2014,04,11,15,43,16.10
2014,04,11,15,44,16.10
2014,04,11,15,45,16.10
2014,04,11,15,46,16.10
2014,04,11,15,47,16.10
2014,04,11,15,48,16.10
2014,04,11,15,49,16.10
2014,04,11,15,50,16.10
2014,04,11,15,51,16.10
2014,04,11,15,52,16.10
2014,04,11,15,53,16.10
2014,04,11,15,54,16.10
2014,04,11,15,55,16.10
2014,04,11,15,56,16.10
2014,04,11,15,57,16.00
2014,04,11,15,58,15.80
2014,04,11,15,59,15.80
2014,04,11,16,00,15.80
2014,04,11,16,01,15.80
2014,04,11,16,02,15.80
2014,04,11,16,03,15.90
2014,04,11,16,04,15.90
2014,04,11,16,05,15.80
2014,04,11,16,06,15.80
2014,04,11,16,07,15.80
2014,04,11,16,08,15.80
2014,04,11,16,09,15.80
2014,04,11,16,10,15.70
2014,04,11,16,11,15.60
2014,04,11,16,12,15.50
2014,04,11,16,13,15.50
2014,04,11,16,14,15.60
2014,04,11,16,15,15.70
2014,04,11,16,16,15.80
2014,04,11,16,17,15.90
2014,04,11,16,18,16.00
2014,04,11,16,19,15.90
2014,04,11,16,20,15.90
2014,04,11,16,21,15.90
2014,04,11,16,22,15.90
2014,04,11,16,23,16.00
2014,04,11,16,24,16.10
2014,04,11,16,25,16.10
2014,04,11,16,26,16.10
2014,04,11,16,27,16.10
2014,04,11,16,28,16.10
2014,04,11,16,29,16.10
2014,04,11,16,30,16.10
2014,04,11,16,31,16.10
2014,04,11,16,32,16.10
2014,04,11,16,33,16.10
2014,04,11,16,34,16.10
2014,04,11,16,35,16.00
2014,04,11,16,36,16.00
2014,04,11,16,37,16.00
2014,04,11,16,38,15.90
2014,04,11,16,39,15.90
2014,04,11,16,40,16.00
2014,04,11,16,41,16.10
2014,04,11,16,42,16.10
2014,04,11,16,43,16.10
2014,04,11,16,44,16.10
2014,04,11,16,45,16.20
2014,04,11,16,46,16.30
2014,04,11,16,47,16.20
2014,04,11,16,48,16.10
2014,04,11,16,49,16.10
2014,04,11,16,50,16.00
2014,04,11,16,51,15.90
2014,04,11,16,52,15.80
2014,04,11,16,53,15.80
2014,04,11,16,54,15.70
2014,04,11,16,55,15.60
2014,04,11,16,56,15.50
2014,04,11,16,57,15.50
2014,04,11,16,58,15.40
2014,04,11,16,59,15.40
2014,04,11,17,00,15.40
2014,04,11,17,01,15.30
2014,04,11,17,02,15.40
2014,04,11,17,03,15.40
2014,04,11,17,04,15.30
2014,04,11,17,05,15.40
2014,04,11,17,06,15.50
2014,04,11,17,07,15.60
2014,04,11,17,08,15.70
2014,04,11,17,09,15.70
2014,04,11,17,10,15.80
2014,04,11,17,11,15.80
2014,04,11,17,12,15.80
2014,04,11,17,13,15.80
2014,04,11,17,14,15.80
2014,04,11,17,15,15.80
2014,04,11,17,16,15.80
2014,04,11,17,17,15.90
2014,04,11,17,18,15.90
2014,04,11,17,19,15.80
2014,04,11,17,20,15.80
2014,04,11,17,21,15.70
2014,04,11,17,22,15.60
2014,04,11,17,23,15.60
2014,04,11,17,24,15.60
2014,04,11,17,25,15.60
2014,04,11,17,26,15.60
2014,04,11,17,27,15.60
2014,04,11,17,28,15.50
2014,04,11,17,29,15.50
2014,04,11,17,30,15.40
2014,04,11,17,31,15.40
2014,04,11,17,32,15.40
2014,04,11,17,33,15.40
2014,04,11,17,34,15.40
2014,04,11,17,35,15.40
2014,04,11,17,36,15.50
2014,04,11,17,37,15.50
2014,04,11,17,38,15.50
2014,04,11,17,39,15.60
2014,04,11,17,40,15.60
2014,04,11,17,41,15.60